Time,TemperatureF,DewpointF,PressureIn,WindDirection,WindDirectionDegrees,WindSpeedMPH,WindSpeedGustMPH,Humidity,HourlyPrecipIn,Conditions,Clouds,dailyrainin,SoftwareType,DateUTC
2013-02-16 00:03:00,48.7,8.2,30.30,North,0,0.0,0.0,19,0.00,CLR,,0.00,WeatherDisplay:10.37,2013-02-16 06:03:00,
2013-02-16 00:08:00,48.7,8.2,30.30,North,0,0.0,0.0,19,0.00,CLR,,0.00,WeatherDisplay:10.37,2013-02-16 06:08:00,
2013-02-16 00:13:00,48.7,8.2,30.30,North,0,0.0,0.0,19,0.00,CLR,,0.00,WeatherDisplay:10.37,2013-02-16 06:13:00,
2013-02-16 00:18:00,48.7,8.2,30.30,North,0,0.0,0.0,19,0.00,CLR,,0.00,WeatherDisplay:10.37,2013-02-16 06:18:00,
2013-02-16 00:23:00,48.7,8.2,30.30,North,0,0.0,0.0,19,0.00,CLR,,0.00,WeatherDisplay:10.37,2013-02-16 06:23:00,
2013-02-16 00:28:00,48.7,8.2,30.30,North,0,0.0,0.0,19,0.00,CLR,,0.00,WeatherDisplay:10.37,2013-02-16 06:28:00,
2013-02-16 00:33:00,48.7,8.2,30.30,North,0,0.0,0.0,19,0.00,CLR,,0.00,WeatherDisplay:10.37,2013-02-16 06:33:00,
2013-02-16 00:38:00,48.7,8.2,30.30,North,0,0.0,0.0,19,0.00,CLR,,0.00,WeatherDisplay:10.37,2013-02-16 06:38:00,
2013-02-16 00:43:00,48.7,8.2,30.30,North,0,0.0,0.0,19,0.00,CLR,,0.00,WeatherDisplay:10.37,2013-02-16 06:43:00,
2013-02-16 00:48:00,48.6,8.1,30.30,North,0,0.0,0.0,19,0.00,CLR,,0.00,WeatherDisplay:10.37,2013-02-16 06:48:00,
2013-02-16 00:53:00,48.6,8.1,30.30,North,0,0.0,0.0,19,0.00,CLR,,0.00,WeatherDisplay:10.37,2013-02-16 06:53:00,
2013-02-16 00:58:00,48.6,8.1,30.33,North,0,0.0,0.0,19,0.00,CLR,,0.00,WeatherDisplay:10.37,2013-02-16 06:58:00,
2013-02-16 01:03:00,48.6,8.1,30.33,North,0,0.0,0.0,19,0.00,CLR,,0.00,WeatherDisplay:10.37,2013-02-16 07:03:00,
2013-02-16 01:08:00,48.4,7.9,30.33,North,0,0.0,0.0,19,0.00,CLR,,0.00,WeatherDisplay:10.37,2013-02-16 07:08:00,
2013-02-16 01:13:00,48.4,7.9,30.33,North,0,0.0,0.0,19,0.00,CLR,,0.00,WeatherDisplay:10.37,2013-02-16 07:13:00,
2013-02-16 01:18:00,48.2,7.8,30.33,North,0,0.0,0.0,19,0.00,CLR,,0.00,WeatherDisplay:10.37,2013-02-16 07:18:00,
2013-02-16 01:23:00,48.2,7.8,30.33,North,0,0.0,0.0,19,0.00,CLR,,0.00,WeatherDisplay:10.37,2013-02-16 07:23:00,
2013-02-16 01:28:00,48.0,7.6,30.33,North,0,0.0,0.0,19,0.00,CLR,,0.00,WeatherDisplay:10.37,2013-02-16 07:28:00,
2013-02-16 01:33:00,47.8,7.5,30.33,North,0,0.0,0.0,19,0.00,CLR,,0.00,WeatherDisplay:10.37,2013-02-16 07:33:00,
2013-02-16 01:38:00,47.8,7.5,30.33,North,0,0.0,0.0,19,0.00,CLR,,0.00,WeatherDisplay:10.37,2013-02-16 07:38:00,
2013-02-16 01:43:00,47.5,7.2,30.33,North,0,0.0,0.0,19,0.00,CLR,,0.00,WeatherDisplay:10.37,2013-02-16 07:43:00,
2013-02-16 01:48:00,47.1,6.9,30.33,North,0,0.0,0.0,19,0.00,CLR,,0.00,WeatherDisplay:10.37,2013-02-16 07:48:00,
2013-02-16 01:53:00,46.9,6.7,30.33,North,0,0.0,0.0,19,0.00,CLR,,0.00,WeatherDisplay:10.37,2013-02-16 07:53:00,
2013-02-16 01:58:00,46.6,6.4,30.30,North,0,0.0,0.0,19,0.00,CLR,,0.00,WeatherDisplay:10.37,2013-02-16 07:58:00,
2013-02-16 02:03:00,46.4,6.3,30.30,North,0,0.0,0.0,19,0.00,CLR,,0.00,WeatherDisplay:10.37,2013-02-16 08:03:00,
2013-02-16 02:08:00,46.2,7.3,30.30,North,0,0.0,0.0,20,0.00,CLR,,0.00,WeatherDisplay:10.37,2013-02-16 08:08:00,
2013-02-16 02:13:00,46.0,7.1,30.33,North,0,0.0,0.0,20,0.00,CLR,,0.00,WeatherDisplay:10.37,2013-02-16 08:13:00,
2013-02-16 02:18:00,46.0,7.1,30.33,North,0,0.0,0.0,20,0.00,CLR,,0.00,WeatherDisplay:10.37,2013-02-16 08:18:00,
2013-02-16 02:23:00,45.9,7.0,30.33,North,0,0.0,0.0,20,0.00,CLR,,0.00,WeatherDisplay:10.37,2013-02-16 08:23:00,
2013-02-16 02:28:00,45.9,7.0,30.33,North,0,0.0,0.0,20,0.00,CLR,,0.00,WeatherDisplay:10.37,2013-02-16 08:28:00,
2013-02-16 02:33:00,45.5,6.7,30.33,North,0,0.0,0.0,20,0.00,CLR,,0.00,WeatherDisplay:10.37,2013-02-16 08:33:00,
2013-02-16 02:38:00,45.5,6.7,30.33,North,0,0.0,0.0,20,0.00,CLR,,0.00,WeatherDisplay:10.37,2013-02-16 08:38:00,
2013-02-16 02:43:00,45.3,6.5,30.33,North,0,0.0,0.0,20,0.00,CLR,,0.00,WeatherDisplay:10.37,2013-02-16 08:43:00,
2013-02-16 02:48:00,45.0,6.2,30.33,North,0,0.0,0.0,20,0.00,CLR,,0.00,WeatherDisplay:10.37,2013-02-16 08:48:00,
2013-02-16 02:53:00,44.4,5.8,30.33,North,0,0.0,0.0,20,0.00,CLR,,0.00,WeatherDisplay:10.37,2013-02-16 08:53:00,
2013-02-16 02:58:00,43.9,5.3,30.30,North,0,0.0,0.0,20,0.00,CLR,,0.00,WeatherDisplay:10.37,2013-02-16 08:58:00,
2013-02-16 03:03:00,43.5,2.7,30.30,North,0,0.0,0.0,18,0.00,CLR,,0.00,WeatherDisplay:10.37,2013-02-16 09:03:00,
2013-02-16 03:08:00,43.2,2.4,30.30,North,0,0.0,0.0,18,0.00,CLR,,0.00,WeatherDisplay:10.37,2013-02-16 09:08:00,
2013-02-16 03:13:00,42.8,2.1,30.33,North,0,0.0,0.0,18,0.00,CLR,,0.00,WeatherDisplay:10.37,2013-02-16 09:13:00,
2013-02-16 03:19:00,42.3,1.7,30.33,North,0,0.0,0.0,18,0.00,CLR,,0.00,WeatherDisplay:10.37,2013-02-16 09:19:00,
2013-02-16 03:24:00,41.7,1.2,30.33,North,0,0.0,0.0,18,0.00,CLR,,0.00,WeatherDisplay:10.37,2013-02-16 09:24:00,
2013-02-16 03:29:00,41.9,1.4,30.33,North,0,0.0,0.0,18,0.00,CLR,,0.00,WeatherDisplay:10.37,2013-02-16 09:29:00,
2013-02-16 03:34:00,42.1,1.5,30.33,North,0,0.0,0.0,18,0.00,CLR,,0.00,WeatherDisplay:10.37,2013-02-16 09:34:00,
2013-02-16 03:39:00,42.1,1.5,30.33,North,0,0.0,0.0,18,0.00,CLR,,0.00,WeatherDisplay:10.37,2013-02-16 09:39:00,
2013-02-16 03:44:00,41.9,1.4,30.30,North,0,0.0,0.0,18,0.00,CLR,,0.00,WeatherDisplay:10.37,2013-02-16 09:44:00,
2013-02-16 03:49:00,41.5,1.1,30.30,North,0,0.0,0.0,18,0.00,CLR,,0.00,WeatherDisplay:10.37,2013-02-16 09:49:00,
2013-02-16 03:54:00,41.4,0.9,30.30,North,0,0.0,0.0,18,0.00,CLR,,0.00,WeatherDisplay:10.37,2013-02-16 09:54:00,
2013-02-16 03:59:00,41.2,0.8,30.30,North,0,0.0,0.0,18,0.00,CLR,,0.00,WeatherDisplay:10.37,2013-02-16 09:59:00,
2013-02-16 04:04:00,41.2,0.8,30.30,North,0,0.0,0.0,18,0.00,CLR,,0.00,WeatherDisplay:10.37,2013-02-16 10:04:00,
2013-02-16 04:09:00,41.0,0.6,30.30,North,0,0.0,0.0,18,0.00,CLR,,0.00,WeatherDisplay:10.37,2013-02-16 10:09:00,
2013-02-16 04:14:00,40.6,0.4,30.33,North,0,0.0,0.0,18,0.00,CLR,,0.00,WeatherDisplay:10.37,2013-02-16 10:14:00,
2013-02-16 04:19:00,40.3,0.1,30.33,North,0,0.0,0.0,18,0.00,CLR,,0.00,WeatherDisplay:10.37,2013-02-16 10:19:00,
2013-02-16 04:24:00,40.1,-0.1,30.33,North,0,0.0,0.0,18,0.00,CLR,,0.00,WeatherDisplay:10.37,2013-02-16 10:24:00,
2013-02-16 04:29:00,39.7,-0.4,30.36,North,0,0.0,0.0,18,0.00,CLR,,0.00,WeatherDisplay:10.37,2013-02-16 10:29:00,
2013-02-16 04:34:00,39.6,-0.5,30.36,North,0,0.0,0.0,18,0.00,CLR,,0.00,WeatherDisplay:10.37,2013-02-16 10:34:00,
2013-02-16 04:39:00,39.4,-0.7,30.36,North,0,0.0,0.0,18,0.00,CLR,,0.00,WeatherDisplay:10.37,2013-02-16 10:39:00,
2013-02-16 04:44:00,39.2,-0.8,30.39,North,0,0.0,0.0,18,0.00,CLR,,0.00,WeatherDisplay:10.37,2013-02-16 10:44:00,
2013-02-16 04:49:00,38.8,0.0,30.39,North,0,0.0,0.0,19,0.00,CLR,,0.00,WeatherDisplay:10.37,2013-02-16 10:49:00,
2013-02-16 04:54:00,38.7,-0.1,30.39,North,0,0.0,0.0,19,0.00,CLR,,0.00,WeatherDisplay:10.37,2013-02-16 10:54:00,
2013-02-16 04:59:00,38.7,-0.1,30.39,North,0,0.0,0.0,19,0.00,CLR,,0.00,WeatherDisplay:10.37,2013-02-16 10:59:00,
2013-02-16 05:04:00,38.5,-0.3,30.39,North,0,0.0,0.0,19,0.00,CLR,,0.00,WeatherDisplay:10.37,2013-02-16 11:04:00,
2013-02-16 05:09:00,38.5,-0.3,30.39,North,0,0.0,0.0,19,0.00,CLR,,0.00,WeatherDisplay:10.37,2013-02-16 11:09:00,
2013-02-16 05:14:00,38.1,-0.6,30.39,North,0,0.0,0.0,19,0.00,CLR,,0.00,WeatherDisplay:10.37,2013-02-16 11:14:00,
2013-02-16 05:19:00,37.9,-0.7,30.39,North,0,0.0,0.0,19,0.00,CLR,,0.00,WeatherDisplay:10.37,2013-02-16 11:19:00,
2013-02-16 05:24:00,37.6,-1.0,30.39,North,0,0.0,0.0,19,0.00,CLR,,0.00,WeatherDisplay:10.37,2013-02-16 11:24:00,
2013-02-16 05:29:00,37.0,-1.5,30.39,North,0,0.0,0.0,19,0.00,CLR,,0.00,WeatherDisplay:10.37,2013-02-16 11:29:00,
2013-02-16 05:34:00,36.7,-1.8,30.39,North,0,0.0,0.0,19,0.00,CLR,,0.00,WeatherDisplay:10.37,2013-02-16 11:34:00,
2013-02-16 05:39:00,36.3,-2.1,30.39,North,0,0.0,0.0,19,0.00,CLR,,0.00,WeatherDisplay:10.37,2013-02-16 11:39:00,
2013-02-16 05:44:00,36.0,-2.4,30.36,North,0,0.0,0.0,19,0.00,CLR,,0.00,WeatherDisplay:10.37,2013-02-16 11:44:00,
2013-02-16 05:49:00,35.6,-2.7,30.36,North,0,0.0,0.0,19,0.00,CLR,,0.00,WeatherDisplay:10.37,2013-02-16 11:49:00,
2013-02-16 05:54:00,35.1,-2.1,30.36,North,0,0.0,0.0,20,0.00,CLR,,0.00,WeatherDisplay:10.37,2013-02-16 11:54:00,
2013-02-16 05:59:00,35.1,-2.1,30.39,North,0,0.0,0.0,20,0.00,CLR,,0.00,WeatherDisplay:10.37,2013-02-16 11:59:00,
2013-02-16 06:04:00,34.9,-2.2,30.39,North,0,0.0,0.0,20,0.00,CLR,,0.00,WeatherDisplay:10.37,2013-02-16 12:04:00,
2013-02-16 06:09:00,34.7,-2.4,30.39,North,0,0.0,0.0,20,0.00,CLR,,0.00,WeatherDisplay:10.37,2013-02-16 12:09:00,
2013-02-16 06:14:00,34.7,-2.4,30.39,North,0,0.0,0.0,20,0.00,CLR,,0.00,WeatherDisplay:10.37,2013-02-16 12:14:00,
2013-02-16 06:19:00,34.9,-0.2,30.39,North,0,0.0,0.0,22,0.00,CLR,,0.00,WeatherDisplay:10.37,2013-02-16 12:19:00,
2013-02-16 06:24:00,34.7,-0.3,30.39,North,0,0.0,0.0,22,0.00,CLR,,0.00,WeatherDisplay:10.37,2013-02-16 12:24:00,
2013-02-16 06:29:00,34.7,-0.3,30.39,North,0,0.0,0.0,22,0.00,CLR,,0.00,WeatherDisplay:10.37,2013-02-16 12:29:00,
2013-02-16 06:34:00,34.7,-0.3,30.39,North,0,0.0,0.0,22,0.00,CLR,,0.00,WeatherDisplay:10.37,2013-02-16 12:34:00,
2013-02-16 06:39:00,34.5,-0.5,30.39,North,0,0.0,0.0,22,0.00,CLR,,0.00,WeatherDisplay:10.37,2013-02-16 12:39:00,
2013-02-16 06:44:00,34.3,-0.6,30.39,North,0,0.0,0.0,22,0.00,CLR,,0.00,WeatherDisplay:10.37,2013-02-16 12:44:00,
2013-02-16 06:49:00,34.0,-1.0,30.39,North,0,0.0,0.0,22,0.00,CLR,,0.00,WeatherDisplay:10.37,2013-02-16 12:49:00,
2013-02-16 06:54:00,34.2,-0.8,30.39,North,0,0.0,0.0,22,0.00,CLR,,0.00,WeatherDisplay:10.37,2013-02-16 12:54:00,
2013-02-16 06:59:00,34.2,-0.8,30.39,North,0,0.0,0.0,22,0.00,CLR,,0.00,WeatherDisplay:10.37,2013-02-16 12:59:00,
2013-02-16 07:04:00,34.3,-0.6,30.39,North,0,0.0,0.0,22,0.00,CLR,,0.00,WeatherDisplay:10.37,2013-02-16 13:04:00,
2013-02-16 07:09:00,34.7,-0.3,30.39,North,0,0.0,0.0,22,0.00,CLR,,0.00,WeatherDisplay:10.37,2013-02-16 13:09:00,
2013-02-16 07:14:00,35.8,0.6,30.36,North,0,0.0,0.0,22,0.00,CLR,,0.00,WeatherDisplay:10.37,2013-02-16 13:14:00,
2013-02-16 07:19:00,37.0,1.6,30.36,North,0,0.0,0.0,22,0.00,CLR,,0.00,WeatherDisplay:10.37,2013-02-16 13:19:00,
2013-02-16 07:24:00,38.3,1.7,30.36,North,0,0.0,0.0,21,0.00,CLR,,0.00,WeatherDisplay:10.37,2013-02-16 13:24:00,
2013-02-16 07:29:00,39.4,2.6,30.39,North,0,0.0,0.0,21,0.00,CLR,,0.00,WeatherDisplay:10.37,2013-02-16 13:29:00,
2013-02-16 07:34:00,40.6,3.7,30.39,North,0,0.0,0.0,21,0.00,CLR,,0.00,WeatherDisplay:10.37,2013-02-16 13:34:00,
2013-02-16 07:39:00,41.9,4.7,30.39,North,0,0.0,0.0,21,0.00,CLR,,0.00,WeatherDisplay:10.37,2013-02-16 13:39:00,
2013-02-16 07:44:00,43.0,4.6,30.42,North,0,0.0,0.0,20,0.00,CLR,,0.00,WeatherDisplay:10.37,2013-02-16 13:44:00,
2013-02-16 07:49:00,43.3,4.9,30.42,North,0,0.0,0.0,20,0.00,CLR,,0.00,WeatherDisplay:10.37,2013-02-16 13:49:00,
2013-02-16 07:54:00,43.7,5.2,30.42,North,0,0.0,0.0,20,0.00,CLR,,0.00,WeatherDisplay:10.37,2013-02-16 13:54:00,
2013-02-16 07:59:00,44.4,5.8,30.42,North,0,0.0,0.0,20,0.00,CLR,,0.00,WeatherDisplay:10.37,2013-02-16 13:59:00,
2013-02-16 08:04:00,45.0,6.2,30.42,North,0,0.0,0.0,20,0.00,CLR,,0.00,WeatherDisplay:10.37,2013-02-16 14:04:00,
2013-02-16 08:09:00,45.5,6.7,30.42,North,0,0.0,0.0,20,0.00,CLR,,0.00,WeatherDisplay:10.37,2013-02-16 14:09:00,
2013-02-16 08:14:00,46.4,6.3,30.42,North,0,0.0,0.0,19,0.00,CLR,,0.00,WeatherDisplay:10.37,2013-02-16 14:14:00,
2013-02-16 08:19:00,46.2,7.3,30.42,North,0,0.0,0.0,20,0.00,CLR,,0.00,WeatherDisplay:10.37,2013-02-16 14:19:00,
2013-02-16 08:24:00,46.6,6.4,30.42,North,0,0.0,0.0,19,0.00,CLR,,0.00,WeatherDisplay:10.37,2013-02-16 14:24:00,
2013-02-16 08:29:00,47.8,7.5,30.44,North,0,0.0,0.0,19,0.00,CLR,,0.00,WeatherDisplay:10.37,2013-02-16 14:29:00,
2013-02-16 08:35:00,48.7,8.2,30.44,North,0,0.0,0.0,19,0.00,CLR,,0.00,WeatherDisplay:10.37,2013-02-16 14:35:00,
2013-02-16 08:40:00,48.2,7.8,30.44,North,0,0.0,0.0,19,0.00,CLR,,0.00,WeatherDisplay:10.37,2013-02-16 14:40:00,
2013-02-16 08:45:00,48.9,8.4,30.44,North,0,0.0,0.0,19,0.00,CLR,,0.00,WeatherDisplay:10.37,2013-02-16 14:45:00,
2013-02-16 08:50:00,49.6,9.0,30.44,North,0,0.0,0.0,19,0.00,CLR,,0.00,WeatherDisplay:10.37,2013-02-16 14:50:00,
2013-02-16 08:55:00,49.6,9.0,30.44,North,0,0.0,0.0,19,0.00,CLR,,0.00,WeatherDisplay:10.37,2013-02-16 14:55:00,
2013-02-16 09:00:00,50.2,9.4,30.44,North,0,0.0,0.0,19,0.00,CLR,,0.00,WeatherDisplay:10.37,2013-02-16 15:00:00,
2013-02-16 09:05:00,50.9,10.0,30.44,North,0,0.0,0.0,19,0.00,CLR,,0.00,WeatherDisplay:10.37,2013-02-16 15:05:00,
2013-02-16 09:10:00,51.1,10.2,30.44,North,0,0.0,0.0,19,0.00,CLR,,0.00,WeatherDisplay:10.37,2013-02-16 15:10:00,
2013-02-16 09:15:00,52.3,10.0,30.44,North,0,0.0,0.0,18,0.00,CLR,,0.00,WeatherDisplay:10.37,2013-02-16 15:15:00,
2013-02-16 09:20:00,53.2,10.8,30.44,North,0,0.0,0.0,18,0.00,CLR,,0.00,WeatherDisplay:10.37,2013-02-16 15:20:00,
2013-02-16 09:25:00,53.4,10.9,30.44,North,0,0.0,0.0,18,0.00,CLR,,0.00,WeatherDisplay:10.37,2013-02-16 15:25:00,
2013-02-16 09:30:00,53.8,11.2,30.44,North,0,0.0,0.0,18,0.00,CLR,,0.00,WeatherDisplay:10.37,2013-02-16 15:30:00,
2013-02-16 09:35:00,53.6,11.0,30.44,North,0,0.0,0.0,18,0.00,CLR,,0.00,WeatherDisplay:10.37,2013-02-16 15:35:00,
2013-02-16 09:40:00,53.1,10.6,30.44,North,0,0.0,0.0,18,0.00,CLR,,0.00,WeatherDisplay:10.37,2013-02-16 15:40:00,
2013-02-16 09:45:00,53.4,10.9,30.44,North,0,0.0,0.0,18,0.00,CLR,,0.00,WeatherDisplay:10.37,2013-02-16 15:45:00,
2013-02-16 09:50:00,54.3,11.6,30.44,North,0,0.0,0.0,18,0.00,CLR,,0.00,WeatherDisplay:10.37,2013-02-16 15:50:00,
2013-02-16 09:55:00,53.6,11.0,30.44,North,0,0.0,0.0,18,0.00,CLR,,0.00,WeatherDisplay:10.37,2013-02-16 15:55:00,
2013-02-16 10:00:00,54.9,12.1,30.44,North,0,0.0,0.0,18,0.00,CLR,,0.00,WeatherDisplay:10.37,2013-02-16 16:00:00,
2013-02-16 10:05:00,54.1,11.5,30.44,North,0,0.0,0.0,18,0.00,CLR,,0.00,WeatherDisplay:10.37,2013-02-16 16:05:00,
2013-02-16 10:10:00,54.7,11.9,30.44,North,0,0.0,0.0,18,0.00,CLR,,0.00,WeatherDisplay:10.37,2013-02-16 16:10:00,
2013-02-16 10:15:00,56.1,11.8,30.44,North,0,0.0,0.0,17,0.00,CLR,,0.00,WeatherDisplay:10.37,2013-02-16 16:15:00,
2013-02-16 10:20:00,55.2,12.4,30.44,North,0,0.0,0.0,18,0.00,CLR,,0.00,WeatherDisplay:10.37,2013-02-16 16:20:00,
2013-02-16 10:25:00,54.7,11.9,30.42,North,0,0.0,0.0,18,0.00,CLR,,0.00,WeatherDisplay:10.37,2013-02-16 16:25:00,
2013-02-16 10:30:00,54.7,11.9,30.42,North,0,0.0,0.0,18,0.00,CLR,,0.00,WeatherDisplay:10.37,2013-02-16 16:30:00,
2013-02-16 10:35:00,54.9,12.1,30.42,North,0,0.0,0.0,18,0.00,CLR,,0.00,WeatherDisplay:10.37,2013-02-16 16:35:00,
2013-02-16 10:40:00,55.8,11.5,30.44,North,0,0.0,0.0,17,0.00,CLR,,0.00,WeatherDisplay:10.37,2013-02-16 16:40:00,
2013-02-16 10:45:00,56.7,12.3,30.44,North,0,0.0,0.0,17,0.00,CLR,,0.00,WeatherDisplay:10.37,2013-02-16 16:45:00,
2013-02-16 10:50:00,56.5,12.1,30.44,North,0,0.0,0.0,17,0.00,CLR,,0.00,WeatherDisplay:10.37,2013-02-16 16:50:00,
2013-02-16 10:55:00,55.9,11.7,30.42,North,0,0.0,0.0,17,0.00,CLR,,0.00,WeatherDisplay:10.37,2013-02-16 16:55:00,
2013-02-16 11:00:00,55.8,11.5,30.42,North,0,0.0,0.0,17,0.00,CLR,,0.00,WeatherDisplay:10.37,2013-02-16 17:00:00,
2013-02-16 11:05:00,56.5,12.1,30.42,North,0,0.0,0.0,17,0.00,CLR,,0.00,WeatherDisplay:10.37,2013-02-16 17:05:00,
2013-02-16 11:10:00,56.5,12.1,30.42,North,0,0.0,0.0,17,0.00,CLR,,0.00,WeatherDisplay:10.37,2013-02-16 17:10:00,
2013-02-16 11:15:00,58.1,13.4,30.42,North,0,0.0,0.0,17,0.00,CLR,,0.00,WeatherDisplay:10.37,2013-02-16 17:15:00,
2013-02-16 11:20:00,58.6,13.9,30.42,North,0,0.0,0.0,17,0.00,CLR,,0.00,WeatherDisplay:10.37,2013-02-16 17:20:00,
2013-02-16 11:25:00,58.3,13.6,30.42,North,0,0.0,0.0,17,0.00,CLR,,0.00,WeatherDisplay:10.37,2013-02-16 17:25:00,
2013-02-16 11:30:00,58.1,13.4,30.42,North,0,0.0,0.0,17,0.00,CLR,,0.00,WeatherDisplay:10.37,2013-02-16 17:30:00,
2013-02-16 11:35:00,57.9,13.3,30.42,North,0,0.0,0.0,17,0.00,CLR,,0.00,WeatherDisplay:10.37,2013-02-16 17:35:00,
2013-02-16 11:40:00,58.3,13.6,30.39,North,0,0.0,0.0,17,0.00,CLR,,0.00,WeatherDisplay:10.37,2013-02-16 17:40:00,
2013-02-16 11:45:00,58.5,13.7,30.39,North,0,0.0,0.0,17,0.00,CLR,,0.00,WeatherDisplay:10.37,2013-02-16 17:45:00,
2013-02-16 11:50:00,58.6,13.9,30.39,North,0,0.0,0.0,17,0.00,CLR,,0.00,WeatherDisplay:10.37,2013-02-16 17:50:00,
2013-02-16 11:55:00,58.1,13.4,30.36,North,0,0.0,0.0,17,0.00,CLR,,0.00,WeatherDisplay:10.37,2013-02-16 17:55:00,
2013-02-16 12:00:00,57.6,13.0,30.36,North,0,0.0,0.0,17,0.00,CLR,,0.00,WeatherDisplay:10.37,2013-02-16 18:00:00,
2013-02-16 12:05:00,58.1,13.4,30.36,North,0,0.0,0.0,17,0.00,CLR,,0.00,WeatherDisplay:10.37,2013-02-16 18:05:00,
2013-02-16 12:10:00,59.2,14.3,30.39,North,0,0.0,0.0,17,0.00,CLR,,0.00,WeatherDisplay:10.37,2013-02-16 18:10:00,
2013-02-16 12:15:00,58.6,13.9,30.39,North,0,0.0,0.0,17,0.00,CLR,,0.00,WeatherDisplay:10.37,2013-02-16 18:15:00,
2013-02-16 12:20:00,58.5,13.7,30.39,North,0,0.0,0.0,17,0.00,CLR,,0.00,WeatherDisplay:10.37,2013-02-16 18:20:00,
2013-02-16 12:25:00,59.2,14.3,30.39,North,0,0.0,0.0,17,0.00,CLR,,0.00,WeatherDisplay:10.37,2013-02-16 18:25:00,
2013-02-16 12:30:00,59.4,14.5,30.39,North,0,0.0,0.0,17,0.00,CLR,,0.00,WeatherDisplay:10.37,2013-02-16 18:30:00,
2013-02-16 12:35:00,60.8,14.3,30.39,North,0,0.0,0.0,16,0.00,CLR,,0.00,WeatherDisplay:10.37,2013-02-16 18:35:00,
2013-02-16 12:40:00,60.4,15.4,30.36,North,0,0.0,0.0,17,0.00,CLR,,0.00,WeatherDisplay:10.37,2013-02-16 18:40:00,
2013-02-16 12:45:00,60.1,15.1,30.36,North,0,0.0,0.0,17,0.00,CLR,,0.00,WeatherDisplay:10.37,2013-02-16 18:45:00,
2013-02-16 12:50:00,61.0,14.4,30.36,North,0,0.0,0.0,16,0.00,CLR,,0.00,WeatherDisplay:10.37,2013-02-16 18:50:00,
2013-02-16 12:55:00,60.1,15.1,30.33,North,0,0.0,0.0,17,0.00,CLR,,0.00,WeatherDisplay:10.37,2013-02-16 18:55:00,
2013-02-16 13:00:00,59.0,14.2,30.33,North,0,0.0,0.0,17,0.00,CLR,,0.00,WeatherDisplay:10.37,2013-02-16 19:00:00,
2013-02-16 13:05:00,58.6,13.9,30.33,North,0,0.0,0.0,17,0.00,CLR,,0.00,WeatherDisplay:10.37,2013-02-16 19:05:00,
2013-02-16 13:10:00,59.2,14.3,30.33,North,0,0.0,0.0,17,0.00,CLR,,0.00,WeatherDisplay:10.37,2013-02-16 19:10:00,
2013-02-16 13:15:00,59.2,14.3,30.33,North,0,0.0,0.0,17,0.00,CLR,,0.00,WeatherDisplay:10.37,2013-02-16 19:15:00,
2013-02-16 13:20:00,60.3,15.2,30.33,North,0,0.0,0.0,17,0.00,CLR,,0.00,WeatherDisplay:10.37,2013-02-16 19:20:00,
2013-02-16 13:25:00,60.3,15.2,30.33,North,0,0.0,0.0,17,0.00,CLR,,0.00,WeatherDisplay:10.37,2013-02-16 19:25:00,
2013-02-16 13:31:00,60.3,15.2,30.33,North,0,0.0,0.0,17,0.00,CLR,,0.00,WeatherDisplay:10.37,2013-02-16 19:31:00,
2013-02-16 13:36:00,60.4,15.4,30.33,North,0,0.0,0.0,17,0.00,CLR,,0.00,WeatherDisplay:10.37,2013-02-16 19:36:00,
2013-02-16 13:41:00,60.3,15.2,30.33,North,0,0.0,0.0,17,0.00,CLR,,0.00,WeatherDisplay:10.37,2013-02-16 19:41:00,
2013-02-16 13:46:00,60.4,15.4,30.33,North,0,0.0,0.0,17,0.00,CLR,,0.00,WeatherDisplay:10.37,2013-02-16 19:46:00,
2013-02-16 13:51:00,60.1,15.1,30.33,North,0,0.0,0.0,17,0.00,CLR,,0.00,WeatherDisplay:10.37,2013-02-16 19:51:00,
2013-02-16 13:56:00,60.4,15.4,30.33,North,0,0.0,0.0,17,0.00,CLR,,0.00,WeatherDisplay:10.37,2013-02-16 19:56:00,
2013-02-16 14:01:00,60.6,15.5,30.33,North,0,0.0,0.0,17,0.00,CLR,,0.00,WeatherDisplay:10.37,2013-02-16 20:01:00,
2013-02-16 14:06:00,60.6,15.5,30.33,North,0,0.0,0.0,17,0.00,CLR,,0.00,WeatherDisplay:10.37,2013-02-16 20:06:00,
2013-02-16 14:11:00,61.7,15.0,30.30,North,0,0.0,0.0,16,0.00,CLR,,0.00,WeatherDisplay:10.37,2013-02-16 20:11:00,
2013-02-16 14:16:00,61.2,14.5,30.30,North,0,0.0,0.0,16,0.00,CLR,,0.00,WeatherDisplay:10.37,2013-02-16 20:16:00,
2013-02-16 14:21:00,61.0,14.4,30.30,North,0,0.0,0.0,16,0.00,CLR,,0.00,WeatherDisplay:10.37,2013-02-16 20:21:00,
2013-02-16 14:26:00,60.1,15.1,30.30,North,0,0.0,0.0,17,0.00,CLR,,0.00,WeatherDisplay:10.37,2013-02-16 20:26:00,
2013-02-16 14:31:00,59.9,14.9,30.30,North,0,0.0,0.0,17,0.00,CLR,,0.00,WeatherDisplay:10.37,2013-02-16 20:31:00,
2013-02-16 14:36:00,59.5,14.6,30.30,North,0,0.0,0.0,17,0.00,CLR,,0.00,WeatherDisplay:10.37,2013-02-16 20:36:00,
2013-02-16 14:41:00,59.7,14.8,30.30,North,0,0.0,0.0,17,0.00,CLR,,0.00,WeatherDisplay:10.37,2013-02-16 20:41:00,
2013-02-16 14:46:00,59.9,14.9,30.30,North,0,0.0,0.0,17,0.00,CLR,,0.00,WeatherDisplay:10.37,2013-02-16 20:46:00,
2013-02-16 14:51:00,60.6,15.5,30.30,North,0,0.0,0.0,17,0.00,CLR,,0.00,WeatherDisplay:10.37,2013-02-16 20:51:00,
2013-02-16 14:56:00,60.8,14.3,30.30,North,0,0.0,0.0,16,0.00,CLR,,0.00,WeatherDisplay:10.37,2013-02-16 20:56:00,
2013-02-16 15:01:00,60.6,15.5,30.30,North,0,0.0,0.0,17,0.00,CLR,,0.00,WeatherDisplay:10.37,2013-02-16 21:01:00,
2013-02-16 15:06:00,60.1,15.1,30.30,North,0,0.0,0.0,17,0.00,CLR,,0.00,WeatherDisplay:10.37,2013-02-16 21:06:00,
2013-02-16 15:11:00,60.3,15.2,30.30,North,0,0.0,0.0,17,0.00,CLR,,0.00,WeatherDisplay:10.37,2013-02-16 21:11:00,
2013-02-16 15:16:00,60.6,15.5,30.30,North,0,0.0,0.0,17,0.00,CLR,,0.00,WeatherDisplay:10.37,2013-02-16 21:16:00,
2013-02-16 15:21:00,60.8,14.3,30.30,North,0,0.0,0.0,16,0.00,CLR,,0.00,WeatherDisplay:10.37,2013-02-16 21:21:00,
2013-02-16 15:26:00,60.1,15.1,30.30,North,0,0.0,0.0,17,0.00,CLR,,0.00,WeatherDisplay:10.37,2013-02-16 21:26:00,
2013-02-16 15:31:00,60.4,15.4,30.30,North,0,0.0,0.0,17,0.00,CLR,,0.00,WeatherDisplay:10.37,2013-02-16 21:31:00,
2013-02-16 15:36:00,60.4,15.4,30.30,North,0,0.0,0.0,17,0.00,CLR,,0.00,WeatherDisplay:10.37,2013-02-16 21:36:00,
2013-02-16 15:41:00,60.4,15.4,30.27,North,0,0.0,0.0,17,0.00,CLR,,0.00,WeatherDisplay:10.37,2013-02-16 21:41:00,
2013-02-16 15:46:00,60.6,15.5,30.27,North,0,0.0,0.0,17,0.00,CLR,,0.00,WeatherDisplay:10.37,2013-02-16 21:46:00,
2013-02-16 15:51:00,60.1,15.1,30.27,North,0,0.0,0.0,17,0.00,CLR,,0.00,WeatherDisplay:10.37,2013-02-16 21:51:00,
2013-02-16 15:56:00,59.4,14.5,30.27,North,0,0.0,0.0,17,0.00,CLR,,0.00,WeatherDisplay:10.37,2013-02-16 21:56:00,
2013-02-16 16:01:00,59.2,14.3,30.27,North,0,0.0,0.0,17,0.00,CLR,,0.00,WeatherDisplay:10.37,2013-02-16 22:01:00,
2013-02-16 16:06:00,59.4,14.5,30.27,North,0,0.0,0.0,17,0.00,CLR,,0.00,WeatherDisplay:10.37,2013-02-16 22:06:00,
2013-02-16 16:11:00,59.7,14.8,30.27,North,0,0.0,0.0,17,0.00,CLR,,0.00,WeatherDisplay:10.37,2013-02-16 22:11:00,
2013-02-16 16:16:00,59.9,14.9,30.27,North,0,0.0,0.0,17,0.00,CLR,,0.00,WeatherDisplay:10.37,2013-02-16 22:16:00,
2013-02-16 16:21:00,60.1,15.1,30.27,North,0,0.0,0.0,17,0.00,CLR,,0.00,WeatherDisplay:10.37,2013-02-16 22:21:00,
2013-02-16 16:26:00,59.5,14.6,30.27,North,0,0.0,0.0,17,0.00,CLR,,0.00,WeatherDisplay:10.37,2013-02-16 22:26:00,
2013-02-16 16:31:00,59.4,14.5,30.27,North,0,0.0,0.0,17,0.00,CLR,,0.00,WeatherDisplay:10.37,2013-02-16 22:31:00,
2013-02-16 16:36:00,59.2,14.3,30.27,North,0,0.0,0.0,17,0.00,CLR,,0.00,WeatherDisplay:10.37,2013-02-16 22:36:00,
2013-02-16 16:41:00,59.2,14.3,30.27,North,0,0.0,0.0,17,0.00,CLR,,0.00,WeatherDisplay:10.37,2013-02-16 22:41:00,
2013-02-16 16:46:00,58.8,14.0,30.27,North,0,0.0,0.0,17,0.00,CLR,,0.00,WeatherDisplay:10.37,2013-02-16 22:46:00,
2013-02-16 16:51:00,58.6,13.9,30.27,North,0,0.0,0.0,17,0.00,CLR,,0.00,WeatherDisplay:10.37,2013-02-16 22:51:00,
2013-02-16 16:56:00,58.6,13.9,30.27,North,0,0.0,0.0,17,0.00,CLR,,0.00,WeatherDisplay:10.37,2013-02-16 22:56:00,
2013-02-16 17:01:00,58.5,13.7,30.27,North,0,0.0,0.0,17,0.00,CLR,,0.00,WeatherDisplay:10.37,2013-02-16 23:01:00,
2013-02-16 17:06:00,58.3,13.6,30.27,North,0,0.0,0.0,17,0.00,CLR,,0.00,WeatherDisplay:10.37,2013-02-16 23:06:00,
2013-02-16 17:11:00,57.9,13.3,30.27,North,0,0.0,0.0,17,0.00,CLR,,0.00,WeatherDisplay:10.37,2013-02-16 23:11:00,
2013-02-16 17:16:00,57.6,13.0,30.27,North,0,0.0,0.0,17,0.00,CLR,,0.00,WeatherDisplay:10.37,2013-02-16 23:16:00,
2013-02-16 17:21:00,57.2,12.7,30.27,North,0,0.0,0.0,17,0.00,CLR,,0.00,WeatherDisplay:10.37,2013-02-16 23:21:00,
2013-02-16 17:26:00,56.8,12.4,30.27,North,0,0.0,0.0,17,0.00,CLR,,0.00,WeatherDisplay:10.37,2013-02-16 23:26:00,
2013-02-16 17:31:00,56.5,12.1,30.27,North,0,0.0,0.0,17,0.00,CLR,,0.00,WeatherDisplay:10.37,2013-02-16 23:31:00,
2013-02-16 17:36:00,56.1,11.8,30.27,North,0,0.0,0.0,17,0.00,CLR,,0.00,WeatherDisplay:10.37,2013-02-16 23:36:00,
2013-02-16 17:41:00,55.4,11.2,30.27,North,0,0.0,0.0,17,0.00,CLR,,0.00,WeatherDisplay:10.37,2013-02-16 23:41:00,
2013-02-16 17:46:00,54.5,11.8,30.27,North,0,0.0,0.0,18,0.00,CLR,,0.00,WeatherDisplay:10.37,2013-02-16 23:46:00,
2013-02-16 17:51:00,54.0,11.3,30.27,North,0,0.0,0.0,18,0.00,CLR,,0.00,WeatherDisplay:10.37,2013-02-16 23:51:00,
2013-02-16 17:56:00,52.3,10.0,30.27,North,0,0.0,0.0,18,0.00,CLR,,0.00,WeatherDisplay:10.37,2013-02-16 23:56:00,
2013-02-16 18:01:00,51.6,10.6,30.27,North,0,0.0,0.0,19,0.00,CLR,,0.00,WeatherDisplay:10.37,2013-02-17 00:01:00,
2013-02-16 18:07:00,51.1,10.2,30.27,North,0,0.0,0.0,19,0.00,CLR,,0.00,WeatherDisplay:10.37,2013-02-17 00:07:00,
2013-02-16 18:12:00,50.4,9.6,30.27,North,0,0.0,0.0,19,0.00,CLR,,0.00,WeatherDisplay:10.37,2013-02-17 00:12:00,
2013-02-16 18:17:00,49.6,9.0,30.27,North,0,0.0,0.0,19,0.00,CLR,,0.00,WeatherDisplay:10.37,2013-02-17 00:17:00,
2013-02-16 18:22:00,48.6,8.1,30.27,North,0,0.0,0.0,19,0.00,CLR,,0.00,WeatherDisplay:10.37,2013-02-17 00:22:00,
2013-02-16 18:27:00,47.3,7.0,30.27,North,0,0.0,0.0,19,0.00,CLR,,0.00,WeatherDisplay:10.37,2013-02-17 00:27:00,
2013-02-16 18:32:00,46.6,6.4,30.27,North,0,0.0,0.0,19,0.00,CLR,,0.00,WeatherDisplay:10.37,2013-02-17 00:32:00,
2013-02-16 18:37:00,45.5,3.1,30.27,North,0,0.0,0.0,17,0.00,CLR,,0.00,WeatherDisplay:10.37,2013-02-17 00:37:00,
2013-02-16 18:42:00,44.6,2.4,30.27,North,0,0.0,0.0,17,0.00,CLR,,0.00,WeatherDisplay:10.37,2013-02-17 00:42:00,
2013-02-16 18:47:00,44.1,3.2,30.27,North,0,0.0,0.0,18,0.00,CLR,,0.00,WeatherDisplay:10.37,2013-02-17 00:47:00,
2013-02-16 18:52:00,43.7,2.9,30.27,North,0,0.0,0.0,18,0.00,CLR,,0.00,WeatherDisplay:10.37,2013-02-17 00:52:00,
2013-02-16 18:57:00,43.2,2.4,30.27,North,0,0.0,0.0,18,0.00,CLR,,0.00,WeatherDisplay:10.37,2013-02-17 00:57:00,
2013-02-16 19:02:00,42.8,2.1,30.27,North,0,0.0,0.0,18,0.00,CLR,,0.00,WeatherDisplay:10.37,2013-02-17 01:02:00,
2013-02-16 19:07:00,42.4,1.8,30.27,North,0,0.0,0.0,18,0.00,CLR,,0.00,WeatherDisplay:10.37,2013-02-17 01:07:00,
2013-02-16 19:12:00,42.3,1.7,30.30,North,0,0.0,0.0,18,0.00,CLR,,0.00,WeatherDisplay:10.37,2013-02-17 01:12:00,
2013-02-16 19:17:00,42.3,1.7,30.30,North,0,0.0,0.0,18,0.00,CLR,,0.00,WeatherDisplay:10.37,2013-02-17 01:17:00,
2013-02-16 19:22:00,41.7,1.2,30.30,North,0,0.0,0.0,18,0.00,CLR,,0.00,WeatherDisplay:10.37,2013-02-17 01:22:00,
2013-02-16 19:27:00,41.2,0.8,30.30,North,0,0.0,0.0,18,0.00,CLR,,0.00,WeatherDisplay:10.37,2013-02-17 01:27:00,
2013-02-16 19:32:00,41.0,0.6,30.30,North,0,0.0,0.0,18,0.00,CLR,,0.00,WeatherDisplay:10.37,2013-02-17 01:32:00,
2013-02-16 19:37:00,41.0,0.6,30.30,North,0,0.0,0.0,18,0.00,CLR,,0.00,WeatherDisplay:10.37,2013-02-17 01:37:00,
2013-02-16 19:42:00,40.6,0.4,30.30,North,0,0.0,0.0,18,0.00,CLR,,0.00,WeatherDisplay:10.37,2013-02-17 01:42:00,
2013-02-16 19:47:00,40.5,0.2,30.30,North,0,0.0,0.0,18,0.00,CLR,,0.00,WeatherDisplay:10.37,2013-02-17 01:47:00,
2013-02-16 19:52:00,39.9,-0.2,30.30,North,0,0.0,0.0,18,0.00,CLR,,0.00,WeatherDisplay:10.37,2013-02-17 01:52:00,
2013-02-16 19:57:00,39.7,-0.4,30.30,North,0,0.0,0.0,18,0.00,CLR,,0.00,WeatherDisplay:10.37,2013-02-17 01:57:00,
2013-02-16 20:02:00,39.6,-0.5,30.30,North,0,0.0,0.0,18,0.00,CLR,,0.00,WeatherDisplay:10.37,2013-02-17 02:02:00,
2013-02-16 20:07:00,39.4,-0.7,30.30,North,0,0.0,0.0,18,0.00,CLR,,0.00,WeatherDisplay:10.37,2013-02-17 02:07:00,
2013-02-16 20:12:00,39.4,-0.7,30.30,North,0,0.0,0.0,18,0.00,CLR,,0.00,WeatherDisplay:10.37,2013-02-17 02:12:00,
2013-02-16 20:17:00,39.2,-0.8,30.30,North,0,0.0,0.0,18,0.00,CLR,,0.00,WeatherDisplay:10.37,2013-02-17 02:17:00,
2013-02-16 20:22:00,39.2,-0.8,30.30,North,0,0.0,0.0,18,0.00,CLR,,0.00,WeatherDisplay:10.37,2013-02-17 02:22:00,
2013-02-16 20:27:00,39.0,0.2,30.30,North,0,0.0,0.0,19,0.00,CLR,,0.00,WeatherDisplay:10.37,2013-02-17 02:27:00,
2013-02-16 20:32:00,39.2,-0.8,30.30,North,0,0.0,0.0,18,0.00,CLR,,0.00,WeatherDisplay:10.37,2013-02-17 02:32:00,
2013-02-16 20:37:00,39.2,-0.8,30.30,North,0,0.0,0.0,18,0.00,CLR,,0.00,WeatherDisplay:10.37,2013-02-17 02:37:00,
2013-02-16 20:42:00,38.8,0.0,30.33,North,0,0.0,0.0,19,0.00,CLR,,0.00,WeatherDisplay:10.37,2013-02-17 02:42:00,
2013-02-16 20:47:00,38.8,0.0,30.33,North,0,0.0,0.0,19,0.00,CLR,,0.00,WeatherDisplay:10.37,2013-02-17 02:47:00,
2013-02-16 20:52:00,38.1,-0.6,30.33,North,0,0.0,0.0,19,0.00,CLR,,0.00,WeatherDisplay:10.37,2013-02-17 02:52:00,
2013-02-16 20:57:00,37.9,-0.7,30.30,North,0,0.0,0.0,19,0.00,CLR,,0.00,WeatherDisplay:10.37,2013-02-17 02:57:00,
2013-02-16 21:02:00,37.8,-0.9,30.30,North,0,0.0,0.0,19,0.00,CLR,,0.00,WeatherDisplay:10.37,2013-02-17 03:02:00,
2013-02-16 21:07:00,37.8,-0.9,30.30,North,0,0.0,0.0,19,0.00,CLR,,0.00,WeatherDisplay:10.37,2013-02-17 03:07:00,
2013-02-16 21:12:00,37.4,-1.2,30.33,North,0,0.0,0.0,19,0.00,CLR,,0.00,WeatherDisplay:10.37,2013-02-17 03:12:00,
2013-02-16 21:17:00,37.6,-1.0,30.33,North,0,0.0,0.0,19,0.00,CLR,,0.00,WeatherDisplay:10.37,2013-02-17 03:17:00,
2013-02-16 21:22:00,37.4,-1.2,30.33,North,0,0.0,0.0,19,0.00,CLR,,0.00,WeatherDisplay:10.37,2013-02-17 03:22:00,
2013-02-16 21:27:00,37.4,-1.2,30.33,North,0,0.0,0.0,19,0.00,CLR,,0.00,WeatherDisplay:10.37,2013-02-17 03:27:00,
2013-02-16 21:32:00,37.2,-1.3,30.33,North,0,0.0,0.0,19,0.00,CLR,,0.00,WeatherDisplay:10.37,2013-02-17 03:32:00,
2013-02-16 21:37:00,37.0,-1.5,30.33,North,0,0.0,0.0,19,0.00,CLR,,0.00,WeatherDisplay:10.37,2013-02-17 03:37:00,
2013-02-16 21:42:00,36.7,-1.8,30.33,North,0,0.0,0.0,19,0.00,CLR,,0.00,WeatherDisplay:10.37,2013-02-17 03:42:00,
2013-02-16 21:47:00,36.9,-1.6,30.33,North,0,0.0,0.0,19,0.00,CLR,,0.00,WeatherDisplay:10.37,2013-02-17 03:47:00,
2013-02-16 21:52:00,36.7,-1.8,30.33,North,0,0.0,0.0,19,0.00,CLR,,0.00,WeatherDisplay:10.37,2013-02-17 03:52:00,
2013-02-16 21:57:00,36.7,1.3,30.33,North,0,0.0,0.0,22,0.00,CLR,,0.00,WeatherDisplay:10.37,2013-02-17 03:57:00,
2013-02-16 22:02:00,36.7,1.3,30.33,North,0,0.0,0.0,22,0.00,CLR,,0.00,WeatherDisplay:10.37,2013-02-17 04:02:00,
2013-02-16 22:07:00,36.3,1.0,30.33,North,0,0.0,0.0,22,0.00,CLR,,0.00,WeatherDisplay:10.37,2013-02-17 04:07:00,
2013-02-16 22:12:00,36.3,1.0,30.33,North,0,0.0,0.0,22,0.00,CLR,,0.00,WeatherDisplay:10.37,2013-02-17 04:12:00,
2013-02-16 22:17:00,36.1,0.9,30.33,North,0,0.0,0.0,22,0.00,CLR,,0.00,WeatherDisplay:10.37,2013-02-17 04:17:00,
2013-02-16 22:22:00,35.8,0.6,30.33,North,0,0.0,0.0,22,0.00,CLR,,0.00,WeatherDisplay:10.37,2013-02-17 04:22:00,
2013-02-16 22:27:00,35.8,0.6,30.33,North,0,0.0,0.0,22,0.00,CLR,,0.00,WeatherDisplay:10.37,2013-02-17 04:27:00,
2013-02-16 22:32:00,35.8,0.6,30.33,North,0,0.0,0.0,22,0.00,CLR,,0.00,WeatherDisplay:10.37,2013-02-17 04:32:00,
2013-02-16 22:38:00,36.0,0.7,30.33,North,0,0.0,0.0,22,0.00,CLR,,0.00,WeatherDisplay:10.37,2013-02-17 04:38:00,
2013-02-16 22:43:00,35.6,0.4,30.33,North,0,0.0,0.0,22,0.00,CLR,,0.00,WeatherDisplay:10.37,2013-02-17 04:43:00,
2013-02-16 22:48:00,35.4,0.3,30.33,North,0,0.0,0.0,22,0.00,CLR,,0.00,WeatherDisplay:10.37,2013-02-17 04:48:00,
2013-02-16 22:53:00,35.6,0.4,30.33,North,0,0.0,0.0,22,0.00,CLR,,0.00,WeatherDisplay:10.37,2013-02-17 04:53:00,
2013-02-16 22:58:00,35.8,0.6,30.33,North,0,0.0,0.0,22,0.00,CLR,,0.00,WeatherDisplay:10.37,2013-02-17 04:58:00,
2013-02-16 23:00:00,35.6,0.4,30.33,North,0,0.0,0.0,22,0.00,CLR,,0.00,WeatherDisplay:10.37,2013-02-17 05:00:00,
2013-02-16 23:05:00,35.6,0.4,30.33,North,0,0.0,0.0,22,0.00,CLR,,0.00,WeatherDisplay:10.37,2013-02-17 05:05:00,
2013-02-16 23:10:00,35.4,0.3,30.33,North,0,0.0,0.0,22,0.00,CLR,,0.00,WeatherDisplay:10.37,2013-02-17 05:10:00,
2013-02-16 23:15:00,35.6,0.4,30.33,North,0,0.0,0.0,22,0.00,CLR,,0.00,WeatherDisplay:10.37,2013-02-17 05:15:00,
2013-02-16 23:20:00,35.4,0.3,30.33,North,0,0.0,0.0,22,0.00,CLR,,0.00,WeatherDisplay:10.37,2013-02-17 05:20:00,
2013-02-16 23:25:00,35.6,0.4,30.30,North,0,0.0,0.0,22,0.00,CLR,,0.00,WeatherDisplay:10.37,2013-02-17 05:25:00,
2013-02-16 23:30:00,35.2,0.1,30.30,North,0,0.0,0.0,22,0.00,CLR,,0.00,WeatherDisplay:10.37,2013-02-17 05:30:00,
2013-02-16 23:35:00,35.4,0.3,30.30,North,0,0.0,0.0,22,0.00,CLR,,0.00,WeatherDisplay:10.37,2013-02-17 05:35:00,
2013-02-16 23:40:00,35.8,2.4,30.30,North,0,0.0,0.0,24,0.00,CLR,,0.00,WeatherDisplay:10.37,2013-02-17 05:40:00,
2013-02-16 23:45:00,35.4,0.3,30.30,North,0,0.0,0.0,22,0.00,CLR,,0.00,WeatherDisplay:10.37,2013-02-17 05:45:00,
2013-02-16 23:50:00,35.2,0.1,30.30,North,0,0.0,0.0,22,0.00,CLR,,0.00,WeatherDisplay:10.37,2013-02-17 05:50:00,
2013-02-16 23:55:00,35.2,2.9,30.30,North,0,0.0,0.0,25,0.00,CLR,,0.00,WeatherDisplay:10.37,2013-02-17 05:55:00,